EXPRESS-AM7 (40505 NORAD) Tracking and Keplerian Element Data

This shows tracking and keplerian element data for the satellite.

Feedback or suggestion? Click here.




ElementValue
Catalog40505
NameEXPRESS-AM7
Epoch Orbit2406
Epoch Day269.21021448
Epoch Year2021
RAAN247.288
Inclination0.008
Eccentricity0.0002873
Argument of Perigee310.5571
Mean Anonmoly283.0685
Mean Motion1.0027015
Decay Rate1.48E-06
L11 40505U 15012A 21269.21021448 .00000148 00000-0 00000+0 0 9997
L22 40505 0.0080 247.2880 0002873 310.5571 283.0685 1.00270150 24067

Live tracking and technical data element details for EXPRESS-AM7 (NORAD 40505). EXPRESS-AM7 can be tracked NOW for your location showing map with azimuth and elevation plus other details from your city location.

Track the satellite on the map from your city or location and see movement details for azimuth, elevation, latitude, longitude, range, height, and movement on the map or in text.







IsCatalogInMostPopularTable: catalog: 40505, numindb: 551
Update: records affected: 1



GetName: 40505 EXPRESS-AM7

Hit Count: updated at: Mon, 27 Sep 2021 00:03:14 GMT